Regional Weather Roundup
Issued by NWS Newport/Morehead, NC

Current Version | Previous Version | Text Only | Print | Product List | Glossary Off
Versions: 1 2 3 4 5 6 7 8 9 10 11 12 13 14 15 16 17 18 19 20 21 22 23 24 25 26 27 28 29 30 31 32 33 34 35 36 37 38 39 40 41 42 43 44 45 46 47 48 49 50
000 ASUS42 KMHX 221210 RWRMHX WEATHER ROUNDUP FOR EASTERN NORTH CAROLINA NATIONAL WEATHER SERVICE NEWPORT/MOREHEAD CITY NC 800 AM EDT WED OCT 22 2014 NOTE: "FAIR" INDICATES FEW OR NO CLOUDS BELOW 12,000 FEET WITH NO SIGNIFICANT WEATHER AND/OR OBSTRUCTIONS TO VISIBILITY NCZ015>017-031-032-045>047-102-103-221300- NORTH COAST CITY SKY/WX TMP DP RH WIND PRES REMARKS EDENTON MOCLDY 53 50 90 NW8 29.88R ELIZABETH CITY CLOUDY 55 50 83 W14G23 29.85R KITTY HAWK PTSUNNY 56 53 88 W10G18 29.82R MANTEO MOCLDY 56 51 84 W12G17 29.84R $$ NCZ045>047-081-094-103-104-221300- CENTRAL COAST CITY SKY/WX TMP DP RH WIND PRES REMARKS FRISCO PTCLDY 57 53 86 NW13G21 29.85R SWANQUARTER N/A 54 N/A N/A NW12 29.85R $$ NCZ095-097-098-100-101-221300- SOUTHERN COAST CITY SKY/WX TMP DP RH WIND PRES REMARKS BEAUFORT CLEAR 55 48 77 NW12 29.91R CEDAR ISLAND N/A 57 N/A N/A NW21G29 29.91R JACKSONVILLE CLEAR 51 43 74 NW12 29.93R PINEY ISLAND SUNNY 58 48 69 NW16 29.89R WILMINGTON CLEAR 51 43 74 NW8 29.95R $$ NCZ011>013-027>030-043-044-078>080-089-090>093-098-221300- COASTAL PLAIN CITY SKY/WX TMP DP RH WIND PRES REMARKS AHOSKIE CLOUDY 51 47 87 CALM 29.91R CLINTON CLEAR 48 45 87 NW5 29.97R ELIZABETHTOWN CLEAR 50 42 73 NW7 29.97R GOLDSBORO CLEAR 50 48 90 CALM 29.93R GREENVILLE CLEAR 52 46 82 NW6 29.94R HAVELOCK CLEAR 52 45 77 NW9 29.92R KENANSVILLE CLEAR 48 42 80 W3 29.96R KINSTON CLEAR 50 45 81 NW3 29.94R NEW BERN CLEAR 53 45 74 W7 29.93R RICHLANDS CLEAR 50 43 76 SW3 29.95R ROCKY MOUNT CLEAR 50 44 80 NW9 29.93R WASHINGTON CLEAR 50 46 88 CALM 29.91R WHITEVILLE CLEAR 50 42 73 CALM 29.98R $$ AMZ130-135-150-152-154-156-158-170-250-252-270-ANZ085-086-088-633-658-670-221300- MARINE OBSERVATIONS STATION/POSITION TIME TEMP WIND PRES WAVE SWELL AIR SEA DIR/SP/G HT/PER HT/PER (UTC) (F) (DEG/KT/KT) (MB) (FT/S) (FT/S) CHESAPEAKE LIGHT 1100 60 330/ 15/ 16 1008.9 64 E VA BEACH 1200 62 69 360/ 16/ 17 1007.2 4/ 7 2/ 7 DUCK 1200 55 68 290/ 16/ 20 1009.0 2 E DUCK 1200 N/A 3/11 2/11 10 NE DUCK 1200 71 N/A 4/ 4 OREGON INLET 1200 56 67 280/ 18/ 22 1009.7 13E OREGON INLT 1200 74 N/A 4/ 4 2/11 HATTERAS CG 1200 58 71 310/ 21/ 23 1010.9 DIAMOND BUOY 1200 62 300/ 21/ 25 1009.9 4/ 4 2/10 17 S OCRACOKE NOT AVBL CAPE LOOKOUT 1100 58 340/ 20/ 24 1011.5 BEAUFORT LAB 1200 55 70 320/ 7/ 10 1011.7 30 SE NEW RIVER 1200 60 76 340/ 19/ 23 1011.9 4/ 5 2/11 5 SE WRIGHTSVLE 1200 53 73 340/ 17/ 21 N/A 225 S CAPE HAT 1120 77 79 280/ 17/ 21 1011.5 5/ 6 2/ 9 41 SE CHARLESTON 1200 64 79 350/ 19/ 23 1014.2 5/ 6 2/10 $$

USA.gov is the U.S. government's official web portal to all federal, state and local government web resources and services.